Location: Newark
(35.6799°N, 139.7636°E)
Time: 01:30:01
(UTC+00:00)

Vanguard 1 Rocket - Pass Details

Date: 19 December 2019
Orbit: 650 x 4226 km, 34.3° (Epoch: 23 January)

Event Time Altitude Azimuth Distance (km) Brightness Sun altitude
Rises 08:22:04 0° 232° (SW) 8,297 14.0 -10.4°
Reaches altitude 10° 08:27:46 10° 230° (SW) 7,394 13.3 -11.5°
Maximum altitude 08:53:24 65° 155° (SSE) 3,895 10.5 -16.4°
Enters shadow 09:06:40 23° 84° (E) 4,566 10.3 -19.0°
